DECAYED

COSMOS 2251 DEB, 34458 (Decayed)

Orbit data source: Space-Track

COSMOS 2251 DEB, 34458 was space debris in LEO originally from a launch on Wed, 16 Jun 1993 UTC launched from the Plesetsk Missile And Space Complex (PKMTR). The debris from Iridium 33, an American commercial communications satellite, has been tracked extensively since its accidental collision with the defunct Russian satellite Cosmos 2251 in 2009. This event, occurring at high speed in low Earth orbit (LEO), generated thousands of pieces of space debris, significantly increasing the risk of further collisions. The Iridium 33 debris cloud has impacted space traffic management and orbital debris mitigation strategies, making it a subject of ongoing study in space situational awareness.

Not visible in the next 10 days
Identifier
34458, 1993-036TB
Orbit
Decayed
Country
Flag of CISCIS
Related business
Manufacturer
Unknown
Mission
Decayed spacecraft
Bus & Motor
Unknown
Mass
Unknown
Launch date (UTC)
1993-06-16 (33 years ago)
Launch vehicle
Unknown
Launch site
Plesetsk Missile And Space Complex (PKMTR)
Object type
Payload
Rocket body
Debris
Shape & HBR
Unknown shape, 0.1 m
Radar Cross Section
Small (<0.1 m²)

Expand to show TLE details & history
Last TLE update: 2 years ago

TLE from 2 years ago
0 COSMOS 2251 DEB
1 34458U 93036TB  25021.08900424  .05899267  60977-1  22786-1 0  9994
2 34458  73.9794 277.5898 0018851 164.0443 196.1390 15.92686325841207
Epoch: 2025-01-21T02:08Z
TLE epoch observation values (Epoch: 2025-01-21T02:08:09.966Z)
Latitude
-0.00003°
Longitude
124.84802°
Altitude
309.651 km
Speed
7.715 km/s
True Right ascension
18h 30m 21s
True Declination
0° 00' 00"
Sunlit
Object was in daylight at epoch
Visualization orbit readout
Latitude
Unknown
Longitude
Unknown
Altitude
Unknown
Speed
Unknown
Apparent Right ascension
Unknown
Apparent Declination
Unknown
Sunlit
N/A
Visualization observer readout
Local Sidereal Time
10:21:14
Azimuth
Unknown
Elevation
Unknown
Doppler factor
Unknown
Orbital elements
Apogee altitude
304.802 km
Perigee altitude
279.654 km
Semi-major axis
6,670.365 km
Eccentricity
0.00189
Inclination
73.9794°
RAAN
277.5898°
Arg. of periapsis
164.0443°
True anomaly
196.07909°
Mean anomaly
196.139°
Eccentric anomaly
196.10903°
Mean motion
3.984 °/min
Orbital period
90.36 mins
BSTAR
0.022786
Loading maneuver chart data...
Computing Atmospheric mass density...

Documentation

Showing up to 5 results
|